Change the Weather History Date:

Saturday, May 18, 2013

  Actual Average Record
Temperature  
Mean Temperature 85 °F 83 °F  
Max Temperature 94 °F 95 °F 107 °F (1970)
Min Temperature 75 °F 70 °F 44 °F (1903)
Degree Days  
Heating Degree Days 0 0  
Month to date heating degree days 0 0  
Since 1 July heating degree days 881 934  
Cooling Degree Days 20 18  
Month to date cooling degree days 324 274  
Year to date cooling degree days 828 629  
Growing Degree Days 34 (Base 50)    
Moisture  
Dew Point 38 °F    
Average Humidity 25    
Maximum Humidity 36    
Minimum Humidity 13    
Precipitation  
Precipitation 0.00 in 0.00 in 0.06 in (1976)
Month to date precipitation 0.00 0.07  
Year to date precipitation 2.61 3.17  
Snow  
Snow 0.00 in - - ()
Month to date snowfall 0.0  
Year to date snowfall 0.0  
Since 1 July snowfall 0.0  
Snow Depth 0.00 in    
Sea Level Pressure  
Sea Level Pressure 29.79 in    
Wind  
Wind Speed 7 mph (West)    
Max Wind Speed 20 mph    
Max Gust Speed 26 mph    
Visibility 10 miles    
Events      
T = Trace of Precipitation, MM = Missing Value Source: NWS Daily Summary

Daily Weather History Graph

Daily Weather History Graph

Search for Another Location

Airport or City:

Trip Planner

Search our weather history database for the weather conditions in past years. The results will help you decide how hot, cold, wet, or windy it might be!

Date:

Astronomy

May. 18, 2013 Rise Set
Actual Time 5:25 AM MST 7:23 PM MST
Civil Twilight 4:57 AM MST 7:51 PM MST
Nautical Twilight 4:24 AM MST 8:25 PM MST
Astronomical Twilight 3:48 AM MST 9:00 PM MST
Moon 12:50 PM MST (5/18) 12:59 AM MST (5/18)
Length of Visible Light 14h 53m
Length of Day
13h 58m
First Quarter, 56% of the Moon is Illuminated
May 18
First Quarter
May 24
Full
May 31
Last Quarter
Jun 8
New
Jun 16
First Quarter

Hourly Weather History & Observations

Time (MST) Temp. Dew Point Humidity Pressure Visibility Wind Dir Wind Speed Gust Speed Precip Events Conditions
12:51 AM 82.0 °F 35.1 °F 18% 29.75 in 10.0 mi Calm Calm - N/A   Mostly Cloudy
1:51 AM 82.0 °F 35.1 °F 18% 29.77 in 10.0 mi West 11.5 mph - N/A   Mostly Cloudy
2:51 AM 80.1 °F 37.0 °F 21% 29.78 in 10.0 mi WSW 15.0 mph - N/A   Scattered Clouds
3:51 AM 79.0 °F 37.9 °F 23% 29.78 in 10.0 mi SW 5.8 mph - N/A   Scattered Clouds
4:51 AM 77.0 °F 42.1 °F 29% 29.79 in 10.0 mi North 8.1 mph - N/A   Scattered Clouds
5:51 AM 75.9 °F 46.0 °F 35% 29.82 in 10.0 mi NNW 6.9 mph - N/A   Scattered Clouds
6:51 AM 75.9 °F 46.0 °F 35% 29.84 in 10.0 mi NNE 5.8 mph - N/A   Partly Cloudy
7:51 AM 77.0 °F 46.0 °F 33% 29.85 in 10.0 mi Calm Calm - N/A   Partly Cloudy
8:51 AM 80.1 °F 46.0 °F 30% 29.86 in 10.0 mi ESE 4.6 mph - N/A   Clear
9:51 AM 82.0 °F 45.0 °F 27% 29.85 in 10.0 mi SE 4.6 mph - N/A   Clear
10:51 AM 82.9 °F 42.1 °F 24% 29.85 in 10.0 mi NW 3.5 mph - N/A   Partly Cloudy
11:51 AM 87.1 °F 39.9 °F 19% 29.83 in 10.0 mi Calm Calm - N/A   Partly Cloudy
12:51 PM 88.0 °F 39.0 °F 18% 29.81 in 10.0 mi Calm Calm - N/A   Partly Cloudy
1:51 PM 91.9 °F 37.0 °F 15% 29.78 in 10.0 mi SSW 4.6 mph 18.4 mph N/A   Partly Cloudy
2:51 PM 90.0 °F 35.1 °F 14% 29.77 in 10.0 mi WNW 10.4 mph 17.3 mph N/A   Partly Cloudy
3:51 PM 91.0 °F 33.1 °F 13% 29.76 in 10.0 mi West 16.1 mph 21.9 mph N/A   Partly Cloudy
4:51 PM 91.0 °F 33.1 °F 13% 29.75 in 10.0 mi West 13.8 mph 24.2 mph N/A   Partly Cloudy
5:51 PM 90.0 °F 32.0 °F 13% 29.75 in 10.0 mi West 13.8 mph 18.4 mph N/A   Partly Cloudy
6:51 PM 88.0 °F 32.0 °F 14% 29.76 in 10.0 mi West 13.8 mph 20.7 mph N/A   Clear
7:51 PM 87.1 °F 33.1 °F 15% 29.75 in 10.0 mi WSW 6.9 mph - N/A   Clear
8:51 PM 84.0 °F 34.0 °F 17% 29.77 in 10.0 mi SW 6.9 mph - N/A   Clear
9:51 PM 82.9 °F 34.0 °F 17% 29.78 in 10.0 mi WSW 8.1 mph - N/A   Clear
10:51 PM 82.9 °F 34.0 °F 17% 29.78 in 10.0 mi WSW 5.8 mph - N/A   Clear
11:51 PM 81.0 °F 34.0 °F 18% 29.78 in 10.0 mi Calm Calm - N/A   Clear